Location: Vulcan
(50.4000°N, 113.2500°W)
Time: 04:54:03
(UTC-07:00)

Vanguard 2 - Visible Passes

Search period start: 17 November 2019 00:00
Search period end: 27 November 2019 00:00
Orbit: 554 x 2937 km, 32.9° (Epoch: 16 November)

Date Brightness Start Highest point End Pass type
(mag) Time Alt. Az. Time Alt. Az. Time Alt. Az.
21 Nov 11.8 05:59:18 10° SSE 06:00:42 10° SSE 06:02:02 10° SSE visible
22 Nov 11.6 06:12:12 10° S 06:18:21 15° SSE 06:23:26 10° SE visible
23 Nov 11.4 06:27:43 10° SSW 06:36:00 19° SSE 06:42:26 10° ESE visible
24 Nov 11.8 04:40:41 10° SSE 04:44:36 11° SSE 04:48:12 10° SE visible
24 Nov 11.3 06:43:58 10° SSW 06:53:39 23° SSE 07:00:50 10° ESE visible
25 Nov 11.7 04:54:16 10° S 05:02:11 16° SSE 05:08:49 10° ESE visible
25 Nov 11.1 07:00:41 10° SW 07:11:19 26° S 07:18:56 10° ESE visible
26 Nov 11.5 05:09:38 10° SSW 05:19:46 20° SSE 05:27:51 10° ESE visible
26 Nov 11.0 07:17:44 10° SW 07:28:58 29° S 07:36:49 10° ESE visible
